Mount Holly, NJ

3:53 AM EST on December 11, 2019 (GMT -0500)
South Jersey Regional

Weather History for KVAY - November, 2019

Change the Weather History Date:

Sunday, November 17, 2019

  Actual Average (KPNE) Record (KPNE)
Temperature  
Mean Temperature 37 °F -  
Max Temperature 44 °F 52 °F 68 °F (2013)
Min Temperature 30 °F 34 °F 27 °F (1996)
Degree Days  
Heating Degree Days 28    
Moisture  
Dew Point 24 °F    
Average Humidity 59    
Maximum Humidity 73    
Minimum Humidity 40    
Precipitation  
Precipitation 0.00 in - - ()
Sea Level Pressure  
Sea Level Pressure 30.22 in    
Wind  
Wind Speed 11 mph (NNE)    
Max Wind Speed 16 mph    
Max Gust Speed 21 mph    
Visibility 10 miles    
Events      
Averages and records for this station are not official NWS values.
T = Trace of Precipitation, MM = Missing Value Source: NWS Daily Summary

Daily Weather History Graph

Daily Weather History Graph

Search for Another Location

Airport or City:

Astronomy

Nov. 17, 2019 Rise Set
Actual Time 6:46 AM EST 4:41 PM EST
Civil Twilight 6:17 AM EST 5:10 PM EST
Nautical Twilight 5:44 AM EST 5:43 PM EST
Astronomical Twilight 5:12 AM EST 6:15 PM EST
Moon 9:15 PM EST (11/17) 11:30 AM EST (11/17)
Length of Visible Light 10h 53m
Length of Day
9h 55m
Waning Gibbous, 73% of the Moon is Illuminated
Nov 17
Waning Gibbous
Nov 19
Last Quarter
Nov 26
New
Dec 4
First Quarter
Dec 12
Full

Hourly Weather History & Observations

Time (EST) Temp. Windchill Dew Point Humidity Pressure Visibility Wind Dir Wind Speed Gust Speed Precip Events Conditions
12:54 AM 33.1 °F 24.4 °F 10.9 °F 40% 30.38 in 10.0 mi NNE 11.5 mph - N/A   Overcast
1:54 AM 33.1 °F 23.4 °F 12.0 °F 42% 30.37 in 10.0 mi NNE 13.8 mph 19.6 mph N/A   Overcast
2:54 AM 32.0 °F 22.5 °F 12.0 °F 44% 30.37 in 10.0 mi NNE 12.7 mph - N/A   Overcast
3:54 AM 30.9 °F 21.7 °F 12.0 °F 46% 30.34 in 10.0 mi NNE 11.5 mph - N/A   Overcast
4:54 AM 32.0 °F 23.0 °F 12.0 °F 44% 30.33 in 10.0 mi NNE 11.5 mph 18.4 mph N/A   Overcast
5:54 AM 32.0 °F 23.6 °F 12.0 °F 44% 30.33 in 10.0 mi NNE 10.4 mph - N/A   Overcast
6:54 AM 30.9 °F 22.2 °F 12.9 °F 47% 30.33 in 10.0 mi NNE 10.4 mph 19.6 mph N/A   Overcast
7:54 AM 32.0 °F 23.0 °F 16.0 °F 52% 30.33 in 10.0 mi NNE 11.5 mph - N/A   Overcast
8:54 AM 34.0 °F 27.2 °F 18.0 °F 52% 30.32 in 10.0 mi NNE 8.1 mph - N/A   Overcast
9:54 AM 37.0 °F 30.4 °F 21.0 °F 52% 30.30 in 10.0 mi NNE 9.2 mph 19.6 mph N/A   Overcast
10:54 AM 39.9 °F 31.4 °F 26.1 °F 58% 30.27 in 10.0 mi NNE 16.1 mph 19.6 mph N/A   Overcast
11:54 AM 42.1 °F 36.1 °F 28.9 °F 60% 30.24 in 10.0 mi NNE 10.4 mph - N/A   Overcast
12:54 PM 44.1 °F 38.1 °F 32.0 °F 63% 30.20 in 10.0 mi NE 11.5 mph 18.4 mph N/A   Overcast
1:54 PM 43.0 °F 37.7 °F 32.0 °F 65% 30.18 in 10.0 mi NE 9.2 mph 18.4 mph N/A   Overcast
2:54 PM 42.1 °F 35.7 °F 32.0 °F 67% 30.16 in 10.0 mi NE 11.5 mph 20.7 mph N/A   Overcast
3:54 PM 42.1 °F 35.7 °F 33.1 °F 70% 30.14 in 10.0 mi NNE 11.5 mph 18.4 mph N/A   Overcast
4:54 PM 42.1 °F 36.1 °F 33.1 °F 70% 30.13 in 10.0 mi NE 10.4 mph - N/A   Overcast
5:54 PM 42.1 °F 36.1 °F 33.1 °F 70% 30.13 in 10.0 mi NNE 10.4 mph - N/A   Overcast
6:54 PM 42.1 °F 37.1 °F 33.1 °F 70% 30.11 in 10.0 mi NNE 8.1 mph - N/A   Overcast
7:54 PM 41.0 °F 35.2 °F 32.0 °F 70% 30.09 in 10.0 mi NNE 9.2 mph 20.7 mph N/A   Overcast
8:54 PM 41.0 °F 34.7 °F 32.0 °F 70% 30.07 in 10.0 mi NNE 10.4 mph - N/A   Overcast
9:54 PM 39.9 °F 32.9 °F 32.0 °F 73% 30.05 in 10.0 mi North 11.5 mph - N/A   Overcast
10:54 PM 39.9 °F 35.1 °F 30.9 °F 70% 30.02 in 10.0 mi NNE 6.9 mph - N/A   Overcast
11:54 PM 39.9 °F 33.4 °F 30.0 °F 68% 30.00 in 10.0 mi NNE 10.4 mph - N/A   Overcast